User: anonymous   Login
Location: Caltech
(34.1382°N, 118.1253°W)
Time: 00:41:51
(UTC-08:00)
Language:

OAO 2 Rocket - Orbit

View from above orbital plane
View from above orbital plane
View from above satellite
View from above satellite

Ground track
Ground track

The orbit data is extracted from the following two-line orbital elements,

1 03598U 68110B   16041.52698093  .00000285  00000-0  69863-4 0  9996
2 03598  34.9926 238.9475 0049626 192.8723 167.0704 14.54178607494710
Epoch (UTC): 10 February 2016 12:38:51
Eccentricity: 0.0049626
inclination: 34.9926°
perigee height: 677 km
apogee height: 747 km
right ascension of ascending node: 238.9475°
argument of perigee: 192.8723°
revolutions per day: 14.54178607
mean anomaly at epoch: 167.0704°
orbit number at epoch: 49471

The dashed part of the orbit path shows where the satellite is in the earth's shadow,  

DLR